[TLELIST] Archives

 

[list_settings.list_name] Current TLEs

February 25th 2021 PST

HST 1 20580U 90037B 21056.37545917 .00000697 00000-0 31334-4 0 9999 2 20580 28.4719 86.6278 0002546 295.6821 64.3503 15.09565419494301 ISS (ZARYA) 1 25544U 98067A 21056.28522044 .00002253 00000-0 49026-4 0 9998 2 25544 51.6435 176.2006 0002977 50.6961 353.3266 15.49006695271250 CXO 1 25867U 99040B 21057.04181448 .00000786 00000-0 00000-0 0 9996 2 25867 57.6135 259.3921 8147644 226.3672 0.4375 0.37808373 10021 ____________________________________________________________________ These 2-Line ...Continue Reading

[list_settings.list_name] Current TLEs

February 24th 2021 PST

HST 1 20580U 90037B 21055.25153430 .00000680 00000-0 30250-4 0 9998 2 20580 28.4721 94.0657 0002689 274.6868 85.3449 15.09564113494137 ISS (ZARYA) 1 25544U 98067A 21055.19206382 .00002355 00000-0 50882-4 0 9996 2 25544 51.6440 181.6089 0002935 47.3098 16.8001 15.49001629271086 CXO 1 25867U 99040B 21057.04181448 .00000786 00000-0 00000-0 0 9996 2 25867 57.6135 259.3921 8147644 226.3672 0.4375 0.37808373 10021 ____________________________________________________________________ These 2-Line ...Continue Reading

[list_settings.list_name] Current TLEs

February 23rd 2021 PST

HST 1 20580U 90037B 21053.82701824 .00000646 00000-0 28234-4 0 9996 2 20580 28.4697 103.4867 0002416 268.6894 254.5678 15.09562436493754 ISS (ZARYA) 1 25544U 98067A 21053.84507863 .00001179 00000-0 29573-4 0 9990 2 25544 51.6429 188.2712 0003004 42.8726 64.9539 15.48989942270873 CXO 1 25867U 99040B 21054.39647685 .00000695 00000-0 00000-0 0 9990 2 25867 57.6688 259.4912 8143229 226.3479 0.4058 0.37804360 10003 ____________________________________________________________________ These 2-Line ...Continue Reading

[list_settings.list_name] Current TLEs

February 22nd 2021 PST

HST 1 20580U 90037B 21053.20982296 .00000620 00000-0 26631-4 0 9993 2 20580 28.4696 107.5700 0002418 261.1567 141.3502 15.09561679493826 ISS (ZARYA) 1 25544U 98067A 21053.38004212 -.00001793 00000-0 -24413-4 0 9991 2 25544 51.6404 190.5754 0002839 40.9044 351.9869 15.48982623270802 CXO 1 25867U 99040B 21054.39647685 .00000695 00000-0 00000-0 0 9990 2 25867 57.6688 259.4912 8143229 226.3479 0.4058 0.37804360 10003 ____________________________________________________________________ These 2-Line ...Continue Reading

[list_settings.list_name] Current TLEs

February 21st 2021 PST

HST 1 20580U 90037B 21051.57590111 .00000498 00000-0 19214-4 0 9994 2 20580 28.4696 118.3797 0002438 241.9653 263.5216 15.09559592493411 ISS (ZARYA) 1 25544U 98067A 21052.35780888 .00001291 00000-0 31611-4 0 9996 2 25544 51.6443 195.6271 0003159 36.7935 52.0177 15.48986150270645 CXO 1 25867U 99040B 21054.39647685 .00000695 00000-0 00000-0 0 9990 2 25867 57.6688 259.4912 8143229 226.3479 0.4058 0.37804360 10003 ____________________________________________________________________ These 2-Line ...Continue Reading

[list_settings.list_name] Current TLEs

February 20th 2021 PST

HST 1 20580U 90037B 21050.58343424 .00000480 00000-0 18103-4 0 9994 2 20580 28.4695 124.9457 0002460 230.5908 270.7279 15.09558723493265 ISS (ZARYA) 1 25544U 98067A 21051.45691486 .00002044 00000-0 45271-4 0 9995 2 25544 51.6442 200.0830 0003231 37.1688 64.6381 15.48985876270502 CXO 1 25867U 99040B 21051.75206349 .00000582 00000-0 00000-0 0 9990 2 25867 57.7201 259.5795 8138637 226.3372 0.4654 0.37803211 9996 ____________________________________________________________________ These 2-Line ...Continue Reading

[list_settings.list_name] Current TLEs

February 19th 2021 PST

HST 1 20580U 90037B 21049.59095943 .00000494 00000-0 18945-4 0 9992 2 20580 28.4695 131.5117 0002488 219.1489 277.9621 15.09558091493111 ISS (ZARYA) 1 25544U 98067A 21050.35666428 .00001943 00000-0 43448-4 0 9992 2 25544 51.6441 205.5251 0003032 33.1814 49.2099 15.48980511270331 CXO 1 25867U 99040B 21051.75206349 .00000582 00000-0 00000-0 0 9990 2 25867 57.7201 259.5795 8138637 226.3372 0.4654 0.37803211 9996 ____________________________________________________________________ These 2-Line ...Continue Reading

[list_settings.list_name] Current TLEs

February 18th 2021 PST

HST 1 20580U 90037B 21048.93463664 .00000499 00000-0 19245-4 0 9997 2 20580 28.4695 135.8537 0002503 211.7088 311.6054 15.09557672493182 ISS (ZARYA) 1 25544U 98067A 21049.44223428 .00000654 00000-0 20054-4 0 9995 2 25544 51.6435 210.0478 0003016 29.7858 350.0620 15.48969860270198 CXO 1 25867U 99040B 21051.75125493 .00000582 00000-0 00000-0 0 9990 2 25867 57.7201 259.5795 8138637 226.3372 0.3555 0.37803210 9994 ____________________________________________________________________ These 2-Line ...Continue Reading

[list_settings.list_name] Current TLEs

February 17th 2021 PST

HST 1 20580U 90037B 21047.60614892 .00000588 00000-0 24671-4 0 9999 2 20580 28.4694 144.6426 0002554 196.6385 292.8226 15.09557298492985 ISS (ZARYA) 1 25544U 98067A 21048.35533911 .00000433 00000-0 16033-4 0 9992 2 25544 51.6430 215.4241 0002660 26.4250 48.5824 15.48966356270028 CXO 1 25867U 99040B 21049.10802483 .00000489 00000-0 00000-0 0 9993 2 25867 57.7708 259.6618 8133102 226.3359 0.5584 0.37803014 9983 ____________________________________________________________________ These 2-Line ...Continue Reading

[list_settings.list_name] Current TLEs

February 16th 2021 PST

HST 1 20580U 90037B 21046.68376521 .00000470 00000-0 17521-4 0 9996 2 20580 28.4693 150.7448 0002593 186.5338 320.3845 15.09556047492676 ISS (ZARYA) 1 25544U 98067A 21047.44578741 .00000631 00000-0 19638-4 0 9995 2 25544 51.6433 219.9227 0002719 22.5068 17.2470 15.48966013269885 CXO 1 25867U 99040B 21049.10802483 .00000489 00000-0 00000-0 0 9993 2 25867 57.7708 259.6618 8133102 226.3359 0.5584 0.37803014 9983 ____________________________________________________________________ These 2-Line ...Continue Reading
  • This mailing list is a public mailing list - anyone may join or leave, at any time.
  • This mailing list is announce-only.

International Space Station (ISS) / Hubble Space Telescope (HST) / Chandra X-Ray Observatory Orbital Data via EMAIL

Privacy Policy:

Private list